Showing default

INTELSAT 29E, 41308

Orbit data source: Space-Track

INTELSAT 29E, 41308 is a payload satellite owned by Intelsat SA (US) (US) in GEO that was launched on Wed, 27 Jan 2016 UTC via an ARIANE 5ECA launch vehicle from the French Guiana (FRGUI). Payload-class satellites include a variety of spacecraft equipped with specific instruments for various scientific and technological missions. These include communications satellites like Starlink; space stations such as the ISS; scientific satellites like the Hubble; Earth observation satellites from companies like Planet Labs, Umbra, and HawkEye 360; GPS; miniature CubeSats for education and research; and military/defense satellites.

Not visible in the next 10 days
Identifier
41308, 2016-004A
Orbit
GEO
Country
Flag of USUS / ITSO
Related business
Manufacturer
Boeing/ES
Mission
Non-operational Commercial Communications
Bus & Motor
BSS-702MP, LEROS
Mass
6,552 kg wet, ~2,946 kg dry
Launch date (UTC)
2016-01-27 (10 years ago)
Launch vehicle
ARIANE 5ECA
Launch site
French Guiana (FRGUI)
Object type
Payload
Rocket body
Debris
Shape & HBR
Box + 2 Pan, 22.0 m
Radar Cross Section
59.953 m², Large (>1 m²)

Expand to show TLE details & history
Last TLE update: 12 hours ago

TLE from 12 hours ago
0 INTELSAT 29E
1 41308U 16004A   26171.39285049  .00000071  00000-0  00000+0 0  9991
2 41308   6.5086  70.2759 0001857  65.7707 278.2406  1.00613861 38305
Epoch: 2026-06-20T09:25Z
TLE epoch observation values (Epoch: 2026-06-20T09:25:42.282Z)
Latitude
-1.78065°
Longitude
4.34454°
Altitude
35,689.57 km
Speed
3.078 km/s
True Right ascension
03h 37m 30s
True Declination
-1° 46' 44"
Sunlit
Object was in daylight at epoch
Visualization orbit readout
Latitude
Unknown
Longitude
Unknown
Altitude
Unknown
Speed
Unknown
Apparent Right ascension
Unknown
Apparent Declination
Unknown
Sunlit
N/A
Visualization observer readout
Local Sidereal Time
08:46:35
Azimuth
Unknown
Elevation
Unknown
Doppler factor
Unknown
Orbital elements
Apogee altitude
35,699.835 km
Perigee altitude
35,684.211 km
Semi-major axis
42,070.16 km
Eccentricity
0.00019
Inclination
6.5086°
RAAN
70.2759°
Arg. of periapsis
65.7707°
True anomaly
278.21954°
Mean anomaly
278.2406°
Eccentric anomaly
278.23007°
Mean motion
0.25153 °/min
Orbital period
1,431.27 mins
BSTAR
0
Loading maneuver chart data...
Computing Atmospheric mass density...
Loading historical data...
Loading historical data...
Loading historical data...
Loading historical data...
Loading historical data...
Loading historical data...
Loading historical data...
Other satellites on launch #4 in the year 2016 (2016-01-27 UTC)

Documentation

Showing up to 5 results
|